Powrót do katalogu

ECHOSTAR 6

AktywnyŁącznośćGEO
NORAD 26402·PAYLOAD·🇺🇸 United States

Wystrzelony Jul 14, 2000 z Cape Canaveral Space Force Station

Loading…

TLE

ŚwieżeSource: Space-Track

Epoka: Sep 14, 2026, 13:30 UTC

1 26402U 00038A   26257.56308561  .00000030  00000-0  00000-0 0  9994
2 26402  11.0432  45.7910 0001133 307.7213  75.9406  0.98789068 95396

Śledź ECHOSTAR 6 w czasie rzeczywistym z AllMySat

Download on the App Store